Tracking 29594 objects as of 20-Sep-2024
HD Live streaming from Space Station
objects crossing your sky now

THORAD AGENA D DEB

Track THORAD AGENA D DEB now!
10-day predictions


NORAD ID: 17719
Int'l Code: 1970-025PH
Perigee: 573.4 km
Apogee: 642.1 km
Inclination: 99.0 °
Period: 96.7 minutes
Semi major axis: 6978 km
RCS: 0.0123 m2 (small)
Launch date: April 8, 1970
Source: United States (US)
Launch site: AIR FORCE WESTERN TEST RANGE (AFWTR)

Note: This is SATELLITE DEBRIS
Your satellite tracking list
Your tracking list is empty




NASA's NSSDC Master Catalog

Two Line Element Set (TLE):
1 17719U 70025PH  24263.36274003  .00200625  00000-0  20228-1 0  9991
2 17719  99.0295 221.9824 0049197  58.1638  93.8416 14.89137868 28646
Source of the keplerian elements: AFSPC